20081113,0
20081215,0
20090113,0
20090213,100
20090313,100
20090413,100
20090513,100
20090615,100
20090713,100
20090813,100
20090914,100
20091013,100
20091113,100
20091214,100
20100113,100
20100215,100
20100315,100
20100413,120
20100513,120
20100614,120
20100713,120
20100813,120
20100913,120
20101013,120
20101115,120
20101213,120
20110113,120
20110214,120
20110314,120
20110413,120
20110513,120
20110613,120
20110713,120
20110815,120
20110913,120
20111013,120
20111114,120
20111213,120
20120113,100
20120213,100
20120313,100
20120413,100
20120514,100
20120613,80
20120713,80
20120813,80
20120913,80
20121015,80
20121113,80
20121213,80
20130115,60
20130213,60
20130313,60
20130415,60
20130513,60
20130613,80
20130716,80
20130813,80
20130913,80
20131015,80
20131113,80
20131213,80
20140114,80
20140213,80
20140313,80
20140414,80
20140513,80
20140613,80
20140714,80
20140813,60
20140916,60
20141014,60
20141113,60
20141215,60
20150113,60
20150213,60
20150313,60
20150413,50
20150513,50
20150615,50
20150713,50
20150813,50
20150914,50
20151013,35
20151113,35
20151214,35
20160113,35
20160215,35
20160314,35
20160413,35
20160513,35
20160613,35
20160713,35
20160815,35
20160913,35
20161013,35
20161114,35
20161213,35
20170113,35
20170213,35
20170313,35
20170413,35
20170515,35
20170613,35
20170713,35
20170814,35
20170913,35
20171013,35
20171113,35
20171213,35
20180115,35
20180213,35
20180313,35
20180413,35
20180514,35
20180613,35
20180713,35
20180813,35
20180913,35
20181015,35
20181113,35
20181213,35
20190115,35
20190213,35
20190313,35
20190415,35
20190513,35
20190613,25
20190716,25
20190813,25
20190913,25
20191015,25
20191113,25
20191213,25
20200114,25
20200213,25
20200313,25
20200413,25
20200513,15
20200615,15
20200713,15
20200813,15
20200914,15
20201013,15
20201113,15
20201214,15
20210113,15
20210215,15
20210315,15
20210413,15
20210513,15
20210614,15
20210713,15
20210813,15
20210913,15
20211013,15
20211115,15
20211213,15
20220113,15
20220214,15
20220314,15
20220413,15
20220513,15
20220613,15
20220713,15
20220815,15
20220913,15
20221013,15
20221114,15
20221213,15
20230113,15
20230213,15
20230313,15
20230413,15
20230515,15
20230613,15
20230713,15
20230814,15
20230913,15
20231013,15
20231113,15
20231213,15
20240115,15
20240213,15
20240313,15
20240415,15
20240513,15
